Location: Absher
(46.5583°N, 107.9840°W)
Time: 08:14:54
(UTC+00:00)

STRAND 1 - Pass Details

Date: 10 April 2023
Orbit: 767 x 779 km, 98.4° (Epoch: 03 June)

Event Time Altitude Azimuth Distance (km) Brightness Sun altitude
Rises 11:19:06 0° 111° (ESE) 3,242 ? -13.0°
Reaches altitude 10° 11:22:28 10° 87° (E) 2,318 ? -12.5°
Maximum altitude 11:25:05 14° 56° (NE) 2,034 ? -12.1°
Drops below altitude 10° 11:27:42 10° 25° (NNE) 2,322 ? -11.7°
Sets 11:31:03 0° 2° (N) 3,252 ? -11.2°
